{"data":{"norad_id":52662,"epoch":"2026-09-19T22:27:57.057120Z","epoch_age_seconds":115209,"freshness":"FRESH","line1":"1 52662U 22053G   26262.93607705 -.00002711  00000+0 -66830-4 0  9997","line2":"2 52662  53.1610 358.4170 0001151 111.6769 248.4357 15.35399319240418","mean_motion":15.35399319,"eccentricity":0.0001151,"inclination_deg":53.161,"raan_deg":358.417,"arg_perigee_deg":111.6769,"mean_anomaly_deg":248.4357,"bstar":-6.683e-5,"rev_number":24041,"period_min":93.786677001906,"perigee_km":458.94762559211,"apogee_km":460.52170364931,"semimajor_km":6837.8716646207,"source":"CELESTRAK","updated_at":"2026-09-20T09:00:40.101044Z"}}